Location: Newark
(48.6461°N, 4.3644°W)
Time: 04:51:30
(UTC+00:00)

Transit 4A - Pass Details

Date: 30 January 2020
Orbit: 872 x 973 km, 66.8° (Epoch: 16 February)

Event Time Altitude Azimuth Distance (km) Brightness Sun altitude
Rises 12:15:14 0° 324° (NW) 3,479 10.4 23.5°
Reaches altitude 10° 12:18:14 10° 338° (NNW) 2,533 9.7 23.6°
Maximum altitude 12:22:55 24° 32° (NNE) 1,728 9.1 23.6°
Drops below altitude 10° 12:27:35 10° 86° (E) 2,531 10.2 23.6°
Sets 12:30:34 0° 100° (E) 3,475 11.0 23.6°
